User: anonymous   Login
Location: West Cummington
(42.4920°N, 72.9680°W)
Time: 00:28:53
(UTC-05:00)
Language:

Cosmos 841 Rocket - Orbit

View from above orbital plane
View from above orbital plane
View from above satellite
View from above satellite

Ground track
Ground track

The orbit data is extracted from the following two-line orbital elements,

1 09023U 76069B   15029.41003620  .00000209  00000-0  75660-4 0  5956
2 09023 074.0427 261.7413 0018751 281.7238 078.1812 14.39302944 19676
Epoch (UTC): 29 January 2015 09:50:27
Eccentricity: 0.0018751
inclination: 74.0427°
perigee height: 747 km
apogee height: 774 km
right ascension of ascending node: 261.7413°
argument of perigee: 281.7238°
revolutions per day: 14.39302944
mean anomaly at epoch: 78.1812°
orbit number at epoch: 1967

The dashed part of the orbit path shows where the satellite is in the earth's shadow,  

DLR